This is the latest recevied weather packets stored in our database for station/object N4MGC. If no packets are shown the sender has not sent any weather packets the latest 10 day(s).
| Time | Temp. | Humidity | Pressure | Rain* | Wind** | Luminosity | Snow |
|---|---|---|---|---|---|---|---|
| 1777865623 | 10° C | 93% | 1018.2 hPa | 0 mm | - | 0 W/m² | - |
| 1777865319 | 10° C | 93% | 1018.3 hPa | 0 mm | - | 0 W/m² | - |
| 1777865016 | 10.56° C | 92% | 1018.2 hPa | 0 mm | - | 0 W/m² | - |
| 1777864713 | 10.56° C | 92% | 1018.4 hPa | 0 mm | - | 0 W/m² | - |
| 1777864410 | 10.56° C | 91% | 1018.5 hPa | 0 mm | - | 0 W/m² | - |
| 1777864106 | 10.56° C | 91% | 1018.5 hPa | 0 mm | - | 0 W/m² | - |
| 1777863804 | 10.56° C | 91% | 1018.5 hPa | 0 mm | - | 0 W/m² | - |
| 1777863500 | 10.56° C | 90% | 1018.3 hPa | 0 mm | - | 0 W/m² | - |
| 1777863197 | 11.11° C | 90% | 1018.4 hPa | 0 mm | - | 0 W/m² | - |
| 1777862894 | 11.11° C | 90% | 1018.6 hPa | 0 mm | - | 0 W/m² | - |
| 1777862590 | 11.11° C | 89% | 1018.4 hPa | 0 mm | - | 0 W/m² | - |
| 1777862287 | 11.11° C | 90% | 1018.4 hPa | 0 mm | - | 0 W/m² | - |
| 1777861983 | 11.67° C | 90% | 1018.5 hPa | 0 mm | - | 0 W/m² | - |
| 1777861679 | 11.11° C | 89% | 1018.3 hPa | 0 mm | - | 0 W/m² | - |
| 1777861376 | 11.67° C | 88% | 1018.2 hPa | 0 mm | - | 0 W/m² | - |
| 1777861073 | 11.67° C | 88% | 1018 hPa | 0 mm | - | 0 W/m² | - |
| 1777860771 | 11.67° C | 87% | 1018 hPa | 0 mm | - | 0 W/m² | - |
| 1777860467 | 11.67° C | 86% | 1018 hPa | 0 mm | - | 0 W/m² | - |
| 1777860164 | 12.22° C | 86% | 1018 hPa | 0 mm | - | 0 W/m² | - |
| 1777859860 | 12.22° C | 85% | 1018.1 hPa | 0 mm | - | 0 W/m² | - |
| 1777859557 | 12.22° C | 83% | 1018 hPa | 0 mm | - | 0 W/m² | - |
| 1777859252 | 12.78° C | 81% | 1017.9 hPa | 0 mm | - | 0 W/m² | - |
| 1777858949 | 12.78° C | 81% | 1017.9 hPa | 0 mm | - | 0 W/m² | - |
| 1777858647 | 13.33° C | 79% | 1017.8 hPa | 0 mm | - | 0 W/m² | - |
| 1777858344 | 13.33° C | 78% | 1017.8 hPa | 0 mm | - | 0 W/m² | - |
* Rain latest hour (hover to see other rain measurements)
** Current wind speed in m/s (hover to see current wind gust speed)